User: anonymous   Login
Location: Unspecified
(0.0000°N, 0.0000°E)
Time: 09:12:33
(UTC+00:00)
Language:

Altair - Orbit

View from above orbital plane
View from above orbital plane
View from above satellite
View from above satellite

Ground track
Ground track

The orbit data is extracted from the following two-line orbital elements,

1    50U 60009B   20093.87347141 -.00000031 +00000-0 +52756-3 0  9992
2    50 047.2335 355.8459 0113399 100.2264 261.1335 12.20110146660990
Epoch (UTC): 02 April 2020 20:57:47
Eccentricity: 0.0113399
inclination: 47.2335°
perigee height: 1501 km
apogee height: 1682 km
right ascension of ascending node: 355.8459°
argument of perigee: 100.2264°
revolutions per day: 12.20110146
mean anomaly at epoch: 261.1335°
orbit number at epoch: 66099

The dashed part of the orbit path shows where the satellite is in the earth's shadow,  

DLR